Weather History for Omak, WA

Change the Weather History Date:

Thursday, October 17, 2013

  Actual Average Record
Temperature  
Mean Temperature 50 °F 48 °F  
Max Temperature 66 °F 61 °F 77 °F (2005)
Min Temperature 33 °F 36 °F 18 °F (1948)
Degree Days  
Heating Degree Days 15 17  
Month to date heating degree days 278 219  
Since 1 July heating degree days 411 380  
Cooling Degree Days 0 0  
Month to date cooling degree days 0 0  
Year to date cooling degree days 814 664  
Moisture  
Dew Point 33 °F    
Average Humidity 56    
Maximum Humidity 82    
Minimum Humidity 30    
Precipitation  
Precipitation 0.00 in 0.04 in 0.63 in (2004)
Month to date precipitation 0.05 0.48  
Year to date precipitation 8.88 10.08  
Sea Level Pressure  
Sea Level Pressure 30.27 in    
Wind  
Wind Speed 7 mph (NNW)    
Max Wind Speed 18 mph    
Max Gust Speed 24 mph    
Visibility 10 miles    
Events      
T = Trace of Precipitation, MM = Missing Value Source: NWS Daily Summary

Daily Weather History Graph

Daily Weather History Graph

Search for Another Location

Airport:

Trip Planner

Search our weather history database for the weather conditions in past years. The results will help you decide how hot, cold, wet, or windy it might be!

Date:

Astronomy

Oct. 17, 2013 Rise Set
Actual Time 7:21 AM PDT 6:04 PM PDT
Civil Twilight 6:49 AM PDT 6:36 PM PDT
Nautical Twilight 6:13 AM PDT 7:12 PM PDT
Astronomical Twilight 5:37 AM PDT 7:48 PM PDT
Moon 5:23 PM PDT (10/17) 5:54 AM PDT (10/17)
Length of Visible Light 11h 46m
Length of Day
10h 42m
Waxing Gibbous, 98% of the Moon is Illuminated
Oct 17
Waxing Gibbous
Oct 18
Full
Oct 26
Last Quarter
Nov 3
New
Nov 9
First Quarter

Hourly Weather History & Observations

Time (PDT) Temp. Windchill Dew Point Humidity Pressure Visibility Wind Dir Wind Speed Gust Speed Precip Events Conditions
12:53 AM 43.0 °F 38.8 °F 34.0 °F 71% 30.22 in 10.0 mi NW 6.9 mph - N/A   Clear
1:53 AM 41.0 °F 37.1 °F 33.1 °F 73% 30.23 in 10.0 mi NW 5.8 mph - N/A   Clear
2:53 AM 37.9 °F 35.5 °F 30.9 °F 76% 30.24 in 10.0 mi NNW 3.5 mph - N/A   Clear
3:53 AM 35.1 °F 30.1 °F 30.0 °F 82% 30.25 in 10.0 mi West 5.8 mph - N/A   Clear
4:53 AM 39.9 °F 36.7 °F 32.0 °F 73% 30.26 in 10.0 mi NNW 4.6 mph - N/A   Clear
5:53 AM 37.0 °F 33.3 °F 30.9 °F 79% 30.28 in 10.0 mi North 4.6 mph - N/A   Clear
6:53 AM 37.0 °F 32.4 °F 30.9 °F 79% 30.29 in 10.0 mi North 5.8 mph - N/A   Clear
7:53 AM 37.0 °F 31.6 °F 32.0 °F 82% 30.30 in 10.0 mi NNE 6.9 mph - N/A   Clear
8:53 AM 44.1 °F 40.1 °F 34.0 °F 68% 30.30 in 10.0 mi North 6.9 mph - N/A   Clear
9:53 AM 48.9 °F - 35.1 °F 59% 30.32 in 10.0 mi North 8.1 mph - N/A   Clear
10:53 AM 53.1 °F - 36.0 °F 52% 30.31 in 10.0 mi North 9.2 mph - N/A   Clear
11:53 AM 57.0 °F - 36.0 °F 45% 30.30 in 10.0 mi NNE 13.8 mph 21.9 mph N/A   Clear
12:53 PM 61.0 °F - 36.0 °F 39% 30.28 in 10.0 mi North 12.7 mph 20.7 mph N/A   Clear
1:53 PM 63.0 °F - 35.1 °F 35% 30.26 in 10.0 mi North 11.5 mph - N/A   Clear
2:53 PM 64.9 °F - 34.0 °F 32% 30.25 in 10.0 mi North 10.4 mph 18.4 mph N/A   Clear
3:53 PM 64.9 °F - 32.0 °F 29% 30.25 in 10.0 mi North 10.4 mph - N/A   Clear
4:53 PM 64.0 °F - 33.1 °F 31% 30.23 in 10.0 mi North 6.9 mph - N/A   Clear
5:53 PM 57.0 °F - 34.0 °F 42% 30.25 in 10.0 mi NW 8.1 mph - N/A   Clear
6:53 PM 54.0 °F - 33.1 °F 45% 30.25 in 10.0 mi NNW 10.4 mph - N/A   Clear
7:53 PM 48.9 °F - 34.0 °F 56% 30.27 in 10.0 mi WSW 5.8 mph - N/A   Clear
8:53 PM 45.0 °F 40.6 °F 34.0 °F 65% 30.28 in 10.0 mi WNW 8.1 mph - N/A   Clear
9:53 PM 45.0 °F 41.2 °F 34.0 °F 65% 30.29 in 10.0 mi WNW 6.9 mph - N/A   Clear
10:53 PM 44.1 °F 40.8 °F 34.0 °F 68% 30.29 in 10.0 mi WNW 5.8 mph - N/A   Clear
11:53 PM 42.1 °F - 33.1 °F 70% 30.30 in 10.0 mi Calm Calm - N/A   Clear